Temp
50 49 49 50 50 50 50 51 50 50 49 50 49 50 49 47 45 43 42 40 45 48 54 55 55 61 60 59 60 60 61 61 62 63 63 63 63 60 57 57 55 56 55 52 51 50 50 50 51 53 54 55 56 56 56 56 55 55 56 56 57 57 57 57 58 62 65 67 67 64 64 63 62 61
52 51 50 50 51 50 49 52 51 51 52 51 51 49 49 47 46 45 45 42 43 47 47 53 54 57 59 60 59 60 60 61 62 61 62 62 63 58 57 57 55 55 55 54 52 50 50 51 52 54 54 54 54 54 54 53 53 53 54 54 55 56 57 57 57 60 63 64 63 63 62 62 61 61
53 52 51 50 51 50 50 49 49 50 50 51 51 50 49 49 46 47 45 44 43 48 50 47 51 54 56 59 57 58 59 61 61 59 59 63 60 59 61 57 56 56 55 55 53 51 51 50 50 51 52 54 55 54 55 54 54 54 54 53 54 57 58 58 58 60 62 62 62 62 61 61 61 60
51 50 51 51 51 50 50 50 51 50 51 51 51 50 50 49 49 48 47 46 48 47 51 50 52 55 54 56 56 57 59 61 58 58 59 60 59 61 62 59 57 56 55 54 52 53 52 51 51 50 50 50 51 52 52 53 54 53 53 52 54 55 57 58 58 61 62 61 61 61 60 60 60 59
51 52 51 51 52 51 50 50 51 51 51 52 50 50 49 49 48 49 50 48 49 48 46 49 52 54 53 56 53 56 55 56 58 59 58 57 58 60 60 60 57 56 54 52 52 52 52 51 51 50 50 50 50 50 51 52 53 52 50 50 51 52 55 57 57 59 62 62 61 60 59 59 59 59
53 49 50 53 52 51 50 51 53 51 52 52 51 51 51 49 51 48 50 47 46 47 48 49 51 52 53 53 54 54 54 55 56 57 58 60 60 61 59 60 60 56 54 52 52 53 53 52 52 51 50 50 50 50 49 48 48 49 49 49 49 52 53 55 56 56 57 58 59 59 59 58 59 59
50 50 50 52 51 52 51 49 48 50 51 51 51 50 49 49 48 49 48 47 45 45 47 46 51 51 51 50 55 56 56 55 56 56 57 58 60 60 59 58 61 56 54 53 53 53 52 52 51 51 51 51 50 49 49 48 48 47 47 47 48 48 48 48 50 52 52 55 57 57 57 57 59 61
51 51 50 50 50 50 51 52 48 48 48 49 49 49 48 48 48 47 47 47 46 44 44 43 48 50 49 50 54 55 56 54 54 55 55 56 56 56 57 58 59 58 54 54 53 53 52 51 51 51 50 51 51 50 49 48 47 47 47 47 46 46 46 46 46 47 50 53 55 56 56 57 60 63
52 51 51 50 49 49 50 50 49 48 47 49 48 47 47 48 47 47 47 45 45 44 44 43 43 47 48 51 51 53 52 52 53 53 52 53 53 52 53 55 58 56 54 53 53 51 51 51 51 51 51 50 50 50 50 49 48 48 48 48 47 46 46 45 46 46 47 48 48 53 55 55 59 62
52 52 51 50 49 49 50 49 47 47 46 46 46 46 46 46 46 45 44 44 43 43 42 42 42 42 45 46 46 50 50 48 49 49 50 50 51 50 50 52 55 57 56 54 54 52 52 52 52 51 51 50 50 50 51 50 50 49 48 48 47 47 47 46 46 45 45 46 46 47 50 53 56 59
52 52 52 50 50 50 50 48 47 45 45 46 45 46 45 45 44 44 43 44 44 42 42 41 41 41 43 43 45 48 49 49 47 46 46 46 49 48 47 48 52 53 52 52 50 50 50 51 53 51 50 51 51 51 51 52 52 51 49 48 47 47 46 46 46 46 45 46 46 45 45 48 52 55
52 52 52 52 51 51 50 49 47 47 46 45 44 44 44 43 43 42 42 42 41 42 41 40 39 39 39 42 42 46 46 46 46 47 44 43 44 45 47 46 48 49 49 49 51 52 52 52 52 51 52 52 51 52 52 54 53 52 51 49 47 47 47 47 46 46 46 46 45 45 45 45 46 51
52 52 52 52 50 52 53 50 49 49 49 48 47 45 42 41 42 41 39 40 40 40 41 40 40 39 40 40 41 42 40 41 42 44 43 43 44 44 45 47 48 47 46 47 48 50 50 50 50 51 51 53 53 53 53 53 54 52 49 48 48 48 47 47 47 46 46 46 46 45 45 45 45 45
51 52 52 53 55 54 51 49 46 45 46 49 49 45 43 43 43 43 43 40 40 40 40 39 38 40 39 39 40 40 41 43 42 41 42 42 44 43 44 45 43 46 46 46 45 48 50 49 49 50 50 52 52 52 52 54 52 50 48 47 46 46 46 46 46 46 46 45 45 45 45 45 45 43
52 51 51 50 52 52 51 49 45 45 44 44 45 45 46 47 46 43 43 39 39 42 40 39 38 37 38 40 40 40 42 42 42 40 41 41 41 40 39 39 43 44 46 44 44 45 47 47 47 49 49 51 51 52 52 50 49 47 46 45 45 46 46 45 45 45 45 45 45 45 44 44 45 43
54 52 50 49 51 50 50 49 48 46 44 43 43 43 43 43 44 45 45 42 40 38 39 38 39 37 38 39 39 40 40 41 40 41 40 40 39 39 38 38 39 43 45 44 43 43 46 46 46 46 48 50 51 52 51 50 49 47 45 44 45 45 45 44 44 44 44 44 44 43 44 43 43 43
53 51 50 50 51 53 53 52 49 49 46 43 42 43 43 42 41 40 41 43 45 41 39 39 38 38 38 38 39 41 41 41 40 40 40 40 39 38 38 39 41 43 44 42 42 42 44 44 43 44 47 48 50 50 49 49 49 48 46 45 44 45 45 44 44 43 43 43 43 43 43 42 42 42
51 51 52 52 51 51 52 51 50 50 47 44 43 43 43 44 44 42 40 39 39 41 42 41 40 40 40 40 39 41 40 39 39 38 38 39 38 38 39 41 41 43 44 41 40 40 42 42 42 42 46 48 48 49 48 47 48 47 46 44 44 44 44 43 43 43 42 41 42 42 42 42 41 41
51 51 52 52 51 51 50 51 50 49 47 45 44 43 42 41 40 41 41 40 40 40 39 38 38 39 38 39 39 39 39 39 40 40 39 39 39 39 40 40 40 40 40 40 39 38 41 40 41 43 44 46 46 46 47 47 45 43 43 43 43 43 42 41 41 42 42 41 42 41 40 40 40 40
49 50 49 50 50 50 50 48 45 47 47 44 43 41 38 37 38 40 43 41 41 41 39 39 40 38 39 41 39 40 40 39 39 40 39 37 37 37 37 37 40 39 37 40 40 38 40 40 42 43 43 43 44 46 45 44 42 42 42 42 42 42 42 41 41 41 41 41 41 41 41 41 40 40
49 48 49 49 49 48 44 39 39 41 44 40 39 38 38 39 39 39 41 42 41 40 40 40 40 40 40 40 40 40 40 40 40 37 35 36 36 35 34 36 36 37 40 37 40 41 39 39 40 40 42 42 42 43 43 42 41 41 41 42 42 42 42 42 42 42 42 41 41 41 41 41 41 41
45 46 52 50 45 42 41 39 39 40 41 39 39 38 37 36 35 36 37 39 39 40 40 40 39 39 39 40 41 41 41 41 41 36 34 36 34 34 34 33 35 37 38 38 42 38 37 39 38 39 38 38 37 42 39 40 41 40 40 41 42 42 41 42 42 42 42 42 42 42 41 41 41 42
42 42 43 44 43 42 41 39 39 39 41 40 40 39 39 38 35 35 34 34 35 35 36 36 37 37 39 40 38 40 41 41 42 39 38 36 34 33 34 34 34 34 34 37 39 37 37 38 36 37 39 37 36 37 39 41 39 39 39 41 41 41 41 41 41 42 42 42 42 42 42 42 41 42
39 40 40 40 39 38 38 38 38 39 40 40 38 37 36 37 34 34 34 36 35 33 34 34 34 35 35 36 37 36 37 39 41 40 38 37 36 35 35 35 35 33 36 39 42 41 42 41 39 37 40 37 32 37 40 40 38 39 39 41 40 41 41 41 41 41 41 41 41 41 41 41 41 42
39 39 40 41 40 38 38 38 38 38 39 39 37 35 35 33 36 37 33 35 39 33 34 34 34 34 34 34 35 35 36 37 38 39 38 39 38 37 35 35 35 36 39 44 44 44 41 42 42 42 40 38 38 38 34 36 36 38 40 40 41 43 41 41 41 40 41 40 40 40 40 40 41 42
41 41 40 39 39 38 38 37 38 38 38 38 38 34 37 37 36 34 35 35 34 33 33 32 32 33 33 33 34 35 36 37 39 39 38 39 39 38 38 38 37 36 37 44 43 45 42 41 42 41 41 40 40 38 35 35 37 38 37 40 42 42 42 41 40 39 39 39 39 39 39 39 40 40
39 41 41 40 39 37 38 38 38 38 38 38 35 37 36 36 36 36 34 33 34 31 32 32 32 32 33 33 34 35 36 37 37 38 38 39 40 40 41 41 42 41 43 44 45 45 43 42 44 42 40 41 39 40 38 35 34 33 36 37 39 40 40 39 39 38 38 38 39 40 39 39 38 38
40 40 40 40 38 37 39 39 38 38 37 36 36 36 37 37 37 35 32 32 33 32 32 30 31 32 33 34 34 35 37 37 38 39 40 40 41 41 42 43 43 44 44 44 44 44 44 42 42 43 43 41 39 38 37 38 37 35 36 34 36 39 39 39 38 39 39 38 37 37 37 37 36 35
40 40 39 38 39 38 38 38 38 38 38 36 37 37 37 39 34 33 32 32 32 31 30 31 32 32 34 34 36 37 37 38 38 37 38 39 40 42 43 43 43 43 43 44 44 45 44 43 42 43 43 43 40 41 40 39 40 37 36 35 33 36 37 37 38 38 38 37 37 36 34 34 33 35
37 37 38 38 38 39 38 39 38 39 38 37 37 38 39 33 32 33 32 31 31 32 32 31 32 33 33 34 35 36 36 35 35 35 36 36 36 38 39 40 40 42 42 42 43 43 44 44 43 43 42 42 42 41 41 41 40 41 39 37 36 35 34 35 33 33 35 34 33 33 33 33 35 36
38 38 38 37 37 37 36 36 36 37 36 36 35 32 33 33 32 32 32 32 32 32 32 32 33 33 34 35 33 33 32 33 34 35 36 35 35 36 37 37 37 38 41 42 42 42 43 44 44 43 40 41 42 42 42 42 40 40 39 39 37 36 33 34 35 33 33 33 32 34 34 34 35 37
39 38 37 38 38 38 37 36 35 34 33 33 34 32 32 33 32 35 37 37 32 32 32 32 31 31 32 32 33 34 33 33 35 35 35 35 35 36 36 33 33 35 37 39 40 41 40 42 43 43 42 41 39 41 42 40 39 38 38 39 39 39 38 37 37 36 35 35 34 34 33 34 35 36
37 38 38 36 36 34 32 31 32 30 29 30 31 32 33 32 33 32 31 32 32 32 31 31 32 32 33 33 33 33 33 34 35 35 34 36 35 36 36 34 34 34 34 35 37 39 41 42 43 43 43 43 42 41 39 36 38 39 38 38 38 38 38 38 38 37 35 35 35 34 35 36 37 38
35 34 34 32 30 30 28 27 27 28 28 30 29 30 32 31 31 31 31 31 31 31 31 32 32 33 33 33 34 34 35 35 36 37 36 36 36 34 33 33 33 35 35 35 36 37 39 40 41 41 41 40 42 42 41 38 37 38 38 37 37 37 38 38 38 37 36 35 35 35 34 34 36 37
34 33 31 28 27 26 28 27 28 28 28 29 29 31 31 31 31 31 30 31 31 32 33 33 34 34 34 33 34 33 34 34 35 36 36 36 35 34 34 33 33 34 34 34 35 37 38 37 37 37 36 37 37 39 43 43 39 38 38 38 38 38 38 38 37 37 36 35 35 34 33 34 35 36
30 27 27 26 25 26 28 27 27 27 28 30 32 32 31 31 31 31 31 32 33 33 33 33 33 33 33 33 34 34 34 34 34 34 34 34 33 33 34 33 33 34 34 34 35 37 37 36 35 33 32 33 32 32 35 42 43 40 37 36 37 37 38 37 37 37 36 35 35 35 34 33 34 35
26 24 24 25 27 27 27 27 27 29 31 31 31 31 30 30 31 32 32 33 33 33 33 33 33 34 34 34 33 34 34 33 33 33 33 33 34 33 32 33 33 34 33 34 36 36 36 35 35 33 32 32 31 31 33 37 38 42 40 37 37 37 37 36 36 35 36 36 35 35 34 34 33 34
25 26 27 28 29 29 28 27 27 28 31 31 30 30 31 32 33 34 35 35 34 34 34 33 33 33 33 33 33 33 33 33 33 33 33 33 32 32 32 32 32 33 33 34 35 35 35 34 34 34 33 31 31 31 32 34 35 36 40 39 37 37 36 36 35 35 35 35 34 34 34 34 33 33
27 27 26 29 30 29 28 29 30 31 31 31 32 33 34 34 35 34 34 34 34 33 33 33 33 33 33 33 33 33 32 32 32 32 32 33 33 32 32 32 32 33 33 33 34 34 34 33 33 34 34 33 32 33 35 33 33 36 36 39 39 36 35 36 35 35 34 33 32 33 33 34 34 35
28 28 28 29 30 30 31 32 32 32 33 34 34 35 34 34 34 33 33 33 33 33 33 33 33 33 33 33 33 33 33 32 32 32 32 32 33 33 32 33 32 32 32 32 32 33 33 33 34 34 35 35 36 37 36 36 36 35 35 35 37 39 37 36 35 34 33 33 33 32 31 32 31 32
28 28 30 29 29 30 31 32 33 33 34 35 35 35 34 34 33 33 33 33 33 33 33 33 33 33 33 33 33 32 31 32 32 32 32 32 33 33 33 33 32 32 31 31 32 32 33 34 35 36 36 36 36 35 34 32 32 34 35 34 36 37 38 39 37 35 34 33 33 33 31 31 30 31
28 28 28 29 31 32 32 31 32 33 34 34 34 33 33 33 32 34 34 33 33 33 33 33 33 33 33 33 33 33 32 32 32 32 32 32 32 32 33 32 32 32 32 31 32 33 34 35 35 35 35 34 33 31 31 33 33 33 33 33 33 36 37 38 39 38 36 34 34 32 31 31 32 30
27 27 28 29 29 31 31 33 32 32 32 32 32 32 31 31 32 32 33 33 33 33 33 33 33 33 33 33 33 33 32 32 32 32 32 32 32 31 32 32 33 33 33 33 34 34 34 34 34 34 34 33 33 33 32 33 34 33 32 32 32 34 35 37 37 37 37 37 37 35 34 33 31 28
27 28 27 28 30 30 30 30 30 31 30 30 31 30 30 31 32 33 33 33 33 33 33 33 33 33 33 33 33 33 33 33 33 32 32 32 32 32 32 32 33 33 33 33 33 33 34 33 33 33 32 32 33 33 33 33 33 33 32 32 32 32 32 33 34 35 35 35 36 36 36 36 35 36
27 26 27 29 30 29 28 29 30 30 30 30 30 30 31 31 32 33 34 34 33 33 33 33 33 33 33 33 33 32 33 34 33 33 33 33 33 33 33 33 32 32 32 33 32 33 33 33 33 33 32 33 33 33 33 33 33 32 32 32 31 32 32 33 33 32 32 32 34 35 35 35 35 35
MSLP
1020.91 1020.99 1020.99 1021.07 1021.15 1021.19 1021.19 1021.23 1021.27 1021.31 1021.39 1021.47 1021.51 1021.47 1021.47 1021.71 1021.87 1021.95 1021.79 1021.63 1021.55 1021.15 1021.07 1021.07 1020.55 1020.47 1020.39 1020.31 1020.15 1020.03 1019.87 1019.71 1019.59 1019.47 1019.39 1019.35 1019.31 1019.27 1019.15 1018.99 1018.83 1018.63 1018.47 1018.39 1018.35 1018.35 1018.39 1018.39 1018.35 1018.31 1018.27 1018.27 1018.23 1018.15 1018.15 1018.15 1018.11 1018.15 1018.15 1018.15 1018.31 1018.35 1018.59 1018.75 1018.83 1018.79 1018.71 1018.71 1018.67 1018.83 1018.95 1019.15 1019.39 1019.71
1020.87 1021.03 1021.11 1021.19 1021.23 1021.35 1021.27 1021.31 1021.31 1021.31 1021.35 1021.35 1021.39 1021.51 1021.55 1021.59 1021.71 1021.95 1022.03 1021.87 1021.67 1021.39 1021.23 1021.11 1020.99 1020.59 1020.51 1020.39 1020.27 1020.11 1019.99 1019.79 1019.67 1019.59 1019.51 1019.43 1019.31 1019.23 1019.07 1018.91 1018.79 1018.67 1018.55 1018.47 1018.43 1018.39 1018.35 1018.27 1018.23 1018.19 1018.19 1018.19 1018.15 1018.07 1018.03 1017.99 1017.99 1017.99 1018.03 1018.07 1018.15 1018.31 1018.47 1018.51 1018.55 1018.71 1018.55 1018.39 1018.47 1018.63 1018.75 1018.87 1019.03 1019.23
1020.79 1020.95 1021.07 1021.15 1021.19 1021.23 1021.23 1021.27 1021.31 1021.35 1021.35 1021.39 1021.43 1021.43 1021.55 1021.55 1021.67 1021.83 1021.91 1022.07 1021.51 1021.87 1021.35 1021.15 1021.07 1020.99 1020.71 1020.59 1020.47 1020.27 1020.15 1019.95 1019.83 1019.71 1019.63 1019.43 1019.31 1019.15 1018.95 1018.83 1018.71 1018.63 1018.55 1018.51 1018.51 1018.47 1018.47 1018.43 1018.35 1018.23 1018.11 1018.03 1017.91 1017.83 1017.79 1017.83 1017.83 1017.83 1017.87 1017.87 1017.91 1017.95 1017.99 1018.11 1018.15 1018.15 1018.03 1017.99 1018.03 1018.11 1018.23 1018.31 1018.51 1018.87
1020.83 1020.91 1020.99 1021.07 1021.11 1021.23 1021.23 1021.31 1021.35 1021.35 1021.35 1021.39 1021.35 1021.39 1021.43 1021.59 1021.71 1021.71 1021.79 1021.91 1021.71 1021.51 1021.43 1021.35 1021.19 1021.03 1020.95 1020.71 1020.59 1020.43 1020.19 1019.99 1019.91 1019.79 1019.63 1019.47 1019.31 1019.15 1018.99 1018.83 1018.71 1018.55 1018.47 1018.43 1018.51 1018.47 1018.35 1018.23 1018.15 1018.07 1017.99 1017.91 1017.83 1017.79 1017.75 1017.71 1017.67 1017.63 1017.63 1017.67 1017.71 1017.71 1017.75 1017.71 1017.75 1017.87 1017.87 1017.83 1017.83 1017.75 1017.79 1018.15 1018.35 1018.67
1020.91 1020.95 1021.07 1021.15 1021.23 1021.27 1021.23 1021.39 1021.43 1021.43 1021.47 1021.39 1021.43 1021.51 1021.51 1021.55 1021.87 1021.83 1021.75 1021.87 1021.75 1021.59 1021.67 1021.51 1021.31 1021.15 1021.07 1020.83 1020.79 1020.63 1020.47 1020.19 1019.99 1019.79 1019.67 1019.51 1019.39 1019.27 1019.19 1019.07 1018.87 1018.75 1018.67 1018.59 1018.47 1018.35 1018.19 1018.11 1018.03 1017.95 1017.87 1017.79 1017.67 1017.59 1017.59 1017.63 1017.63 1017.55 1017.55 1017.51 1017.51 1017.51 1017.51 1017.51 1017.51 1017.51 1017.51 1017.55 1017.71 1017.79 1017.91 1018.03 1018.11 1018.43
1020.91 1020.99 1021.03 1021.15 1021.23 1021.35 1021.31 1021.35 1021.39 1021.51 1021.55 1021.59 1021.51 1021.63 1021.71 1021.79 1021.95 1022.03 1021.87 1021.99 1021.95 1021.71 1021.55 1021.43 1021.47 1021.27 1021.23 1021.11 1020.91 1020.91 1020.79 1020.63 1020.39 1020.11 1019.87 1019.67 1019.55 1019.47 1019.43 1019.27 1019.07 1018.91 1018.79 1018.67 1018.51 1018.39 1018.27 1018.19 1018.11 1017.99 1017.91 1017.79 1017.67 1017.59 1017.55 1017.51 1017.51 1017.47 1017.31 1017.31 1017.35 1017.31 1017.31 1017.31 1017.27 1017.31 1017.35 1017.39 1017.47 1017.55 1017.63 1017.75 1017.87 1018.07
1020.91 1020.99 1021.03 1021.11 1021.19 1021.31 1021.27 1021.39 1021.47 1021.59 1021.67 1021.79 1021.79 1021.95 1022.07 1022.07 1022.27 1022.35 1022.35 1022.11 1022.03 1021.99 1021.87 1021.63 1021.59 1021.59 1021.55 1021.35 1021.15 1020.99 1020.91 1020.83 1020.59 1020.39 1020.27 1020.15 1019.91 1019.79 1019.75 1019.59 1019.31 1019.11 1018.99 1018.87 1018.75 1018.59 1018.51 1018.47 1018.35 1018.15 1017.99 1017.79 1017.67 1017.59 1017.51 1017.47 1017.47 1017.47 1017.51 1017.31 1017.15 1017.15 1017.15 1017.15 1017.19 1017.19 1017.19 1017.23 1017.31 1017.35 1017.43 1017.55 1017.63 1017.79
1020.95 1020.87 1020.99 1021.11 1021.19 1021.27 1021.31 1021.39 1021.47 1021.63 1021.75 1021.83 1021.91 1022.07 1022.47 1022.35 1022.39 1022.59 1022.55 1022.59 1022.43 1022.51 1022.43 1022.07 1021.91 1021.91 1021.83 1021.55 1021.43 1021.27 1021.07 1020.91 1020.75 1020.67 1020.51 1020.27 1020.23 1020.19 1019.99 1019.87 1019.63 1019.39 1019.27 1019.15 1019.07 1018.91 1018.75 1018.63 1018.43 1018.27 1018.07 1017.91 1017.71 1017.55 1017.43 1017.39 1017.35 1017.39 1017.43 1017.55 1017.59 1017.31 1017.03 1016.99 1017.03 1016.99 1016.99 1017.03 1017.11 1017.19 1017.27 1017.35 1017.43 1017.47
1020.75 1020.83 1020.87 1020.99 1021.15 1021.23 1021.27 1021.39 1021.43 1021.59 1021.63 1021.75 1021.83 1021.99 1022.23 1022.27 1022.55 1022.67 1022.75 1022.79 1022.71 1022.51 1022.47 1022.55 1022.19 1022.23 1022.07 1021.99 1021.75 1021.59 1021.47 1021.11 1020.95 1020.87 1020.83 1020.75 1020.63 1020.39 1020.27 1020.07 1019.83 1019.55 1019.39 1019.31 1019.23 1019.15 1018.99 1018.79 1018.59 1018.39 1018.19 1018.03 1017.87 1017.67 1017.51 1017.35 1017.27 1017.23 1017.23 1017.23 1017.27 1017.39 1017.43 1017.27 1017.03 1016.87 1016.87 1016.91 1016.99 1017.07 1017.11 1017.19 1017.19 1017.23
1020.55 1020.63 1020.75 1020.83 1021.03 1021.11 1021.11 1021.23 1021.43 1021.55 1021.63 1021.79 1021.95 1022.07 1022.23 1022.39 1022.47 1022.51 1022.71 1022.91 1022.91 1022.91 1022.91 1022.87 1022.51 1022.47 1022.47 1022.23 1022.07 1021.99 1021.95 1021.79 1021.39 1021.11 1020.95 1020.83 1020.75 1020.71 1020.43 1020.19 1020.03 1019.75 1019.59 1019.47 1019.27 1019.11 1018.91 1018.79 1018.59 1018.47 1018.27 1018.11 1017.91 1017.75 1017.55 1017.39 1017.23 1017.11 1017.07 1017.03 1016.99 1016.99 1016.95 1016.95 1016.99 1016.99 1016.99 1016.95 1016.99 1016.99 1017.03 1017.07 1017.15 1017.15
1020.27 1020.39 1020.51 1020.67 1020.79 1020.87 1020.91 1021.07 1021.27 1021.47 1021.67 1021.79 1022.07 1022.19 1022.27 1022.43 1022.43 1022.55 1022.71 1022.75 1022.67 1022.87 1022.95 1022.91 1023.03 1023.03 1022.83 1022.87 1022.55 1022.15 1022.23 1022.07 1021.99 1021.91 1021.51 1021.07 1020.99 1021.15 1021.11 1020.63 1020.23 1019.99 1019.75 1019.47 1019.43 1019.35 1019.15 1018.91 1018.67 1018.51 1018.31 1018.15 1017.99 1017.79 1017.63 1017.43 1017.23 1017.07 1016.95 1016.87 1016.79 1016.75 1016.75 1016.79 1016.79 1016.75 1016.67 1016.71 1016.71 1016.79 1016.87 1016.99 1017.07 1017.11
1020.03 1020.11 1020.27 1020.39 1020.51 1020.59 1020.79 1020.91 1021.11 1021.27 1021.47 1021.75 1021.87 1022.19 1022.19 1022.35 1022.43 1022.63 1022.83 1022.83 1022.91 1022.95 1023.03 1023.15 1023.11 1023.27 1023.15 1022.95 1022.87 1022.71 1022.31 1021.99 1021.79 1021.99 1022.19 1022.07 1021.59 1021.27 1021.11 1021.07 1020.71 1020.27 1020.11 1019.87 1019.51 1019.19 1018.95 1018.67 1018.51 1018.35 1018.23 1018.15 1018.03 1017.83 1017.59 1017.35 1017.19 1016.99 1016.87 1016.83 1016.71 1016.55 1016.47 1016.47 1016.51 1016.55 1016.63 1016.67 1016.71 1016.79 1016.79 1016.83 1016.91 1016.95
1019.87 1019.95 1020.07 1020.11 1020.31 1020.47 1020.59 1020.75 1020.95 1021.07 1021.19 1021.39 1021.59 1021.99 1022.15 1022.27 1022.43 1022.67 1022.83 1022.95 1022.95 1022.99 1023.07 1023.03 1023.27 1023.19 1023.11 1023.07 1022.99 1022.79 1022.75 1022.83 1022.75 1022.31 1022.39 1022.15 1021.87 1021.67 1021.31 1020.87 1020.71 1020.55 1020.43 1020.23 1019.95 1019.75 1019.67 1019.35 1018.99 1018.79 1018.47 1018.19 1017.99 1017.67 1017.55 1017.31 1017.07 1016.95 1016.83 1016.67 1016.55 1016.39 1016.27 1016.23 1016.31 1016.39 1016.47 1016.51 1016.51 1016.59 1016.67 1016.67 1016.71 1016.79
1019.79 1019.75 1019.83 1019.95 1020.07 1020.31 1020.51 1020.71 1020.91 1021.11 1021.23 1021.31 1021.43 1021.71 1021.99 1022.19 1022.39 1022.59 1022.75 1022.83 1022.99 1022.99 1022.95 1022.99 1023.11 1023.03 1023.03 1023.11 1023.03 1023.03 1022.83 1022.83 1022.67 1022.59 1022.43 1022.23 1021.79 1021.67 1021.27 1020.91 1020.67 1020.55 1020.51 1020.35 1020.19 1019.95 1019.79 1019.67 1019.27 1018.99 1018.67 1018.23 1018.23 1017.95 1017.59 1017.31 1017.15 1016.95 1016.79 1016.63 1016.47 1016.35 1016.15 1016.15 1016.19 1016.27 1016.35 1016.43 1016.43 1016.47 1016.55 1016.59 1016.67 1016.75
1019.55 1019.71 1019.87 1019.99 1020.15 1020.31 1020.55 1020.71 1020.87 1021.07 1021.27 1021.43 1021.51 1021.59 1021.71 1021.87 1022.11 1022.43 1022.63 1022.71 1022.95 1022.87 1022.91 1022.99 1023.11 1023.19 1023.11 1023.03 1023.15 1023.07 1022.79 1022.59 1022.51 1022.51 1022.55 1022.55 1022.31 1022.11 1021.91 1021.19 1020.55 1020.71 1020.63 1020.55 1020.43 1019.87 1019.79 1019.71 1019.43 1019.11 1018.95 1018.51 1018.11 1017.91 1017.75 1017.47 1017.15 1016.99 1016.79 1016.59 1016.39 1016.31 1016.19 1016.15 1016.19 1016.27 1016.31 1016.31 1016.39 1016.47 1016.55 1016.59 1016.63 1016.71
1019.19 1019.55 1019.91 1020.11 1020.23 1020.39 1020.55 1020.83 1021.07 1021.19 1021.31 1021.43 1021.55 1021.59 1021.63 1021.79 1021.99 1022.15 1022.35 1022.47 1022.83 1022.91 1022.87 1022.95 1022.99 1023.19 1023.15 1023.07 1023.07 1022.91 1022.75 1022.55 1022.51 1022.51 1022.51 1022.43 1022.35 1022.23 1022.19 1021.95 1021.43 1020.67 1020.75 1020.71 1020.43 1019.87 1019.63 1019.59 1019.51 1019.27 1018.99 1018.71 1018.39 1017.99 1017.63 1017.35 1017.11 1016.95 1016.75 1016.55 1016.39 1016.27 1016.23 1016.15 1016.15 1016.19 1016.23 1016.27 1016.35 1016.35 1016.39 1016.43 1016.47 1016.55
1019.23 1019.63 1019.83 1020.11 1020.31 1020.47 1020.63 1020.75 1020.99 1021.15 1021.31 1021.47 1021.59 1021.67 1021.75 1021.83 1021.91 1022.11 1022.35 1022.51 1022.51 1022.63 1022.83 1022.91 1022.99 1023.07 1022.99 1022.99 1022.87 1022.79 1022.75 1022.83 1022.83 1022.59 1022.55 1022.39 1022.35 1022.23 1022.11 1021.71 1021.27 1020.83 1020.87 1020.83 1020.39 1019.71 1019.39 1019.47 1019.39 1019.31 1018.91 1018.75 1018.43 1017.99 1017.59 1017.27 1016.99 1016.75 1016.59 1016.47 1016.31 1016.23 1016.23 1016.19 1016.15 1016.19 1016.19 1016.27 1016.39 1016.47 1016.51 1016.51 1016.51 1016.55
1019.59 1019.75 1019.91 1020.07 1020.27 1020.51 1020.63 1020.87 1021.03 1021.11 1021.11 1021.19 1021.51 1021.71 1021.87 1021.87 1021.99 1022.23 1022.39 1022.59 1022.79 1022.91 1022.87 1022.87 1022.83 1022.83 1023.15 1023.11 1023.07 1023.07 1023.03 1022.99 1022.91 1022.83 1022.67 1022.55 1022.39 1022.19 1021.91 1021.43 1021.27 1020.83 1020.83 1020.83 1020.47 1019.75 1019.27 1019.23 1019.27 1019.23 1018.79 1018.55 1018.27 1017.99 1017.63 1017.31 1016.95 1016.79 1016.59 1016.43 1016.31 1016.27 1016.27 1016.31 1016.35 1016.39 1016.47 1016.51 1016.55 1016.55 1016.55 1016.51 1016.51 1016.55
1019.67 1019.71 1019.87 1019.99 1020.15 1020.51 1020.75 1020.95 1020.99 1020.99 1021.03 1021.15 1021.35 1021.55 1021.71 1022.07 1022.39 1022.55 1022.79 1022.95 1023.07 1023.23 1023.35 1023.43 1023.47 1023.43 1023.39 1023.35 1023.27 1023.11 1023.03 1022.95 1022.87 1022.75 1022.63 1022.51 1022.35 1022.07 1021.63 1021.27 1020.95 1020.67 1020.55 1020.43 1020.43 1019.87 1019.15 1019.11 1019.11 1018.95 1018.71 1018.27 1018.11 1017.87 1017.51 1017.15 1017.15 1016.95 1016.63 1016.43 1016.35 1016.31 1016.35 1016.39 1016.43 1016.47 1016.51 1016.47 1016.43 1016.35 1016.31 1016.31 1016.35 1016.39
1019.79 1019.91 1020.03 1020.35 1020.39 1020.51 1020.59 1020.83 1021.03 1021.19 1021.23 1021.27 1021.51 1021.87 1022.27 1022.35 1022.39 1022.63 1023.03 1023.03 1023.11 1023.19 1023.27 1023.35 1023.39 1023.35 1023.31 1023.23 1023.15 1023.03 1022.87 1022.75 1022.63 1022.51 1022.39 1022.39 1022.23 1021.95 1021.63 1021.11 1020.63 1020.63 1020.35 1020.23 1020.11 1019.71 1019.11 1019.07 1018.99 1018.63 1018.51 1018.31 1018.07 1017.63 1017.39 1017.27 1017.27 1016.99 1016.71 1016.55 1016.47 1016.43 1016.39 1016.35 1016.35 1016.31 1016.31 1016.31 1016.31 1016.27 1016.23 1016.19 1016.15 1016.11
1019.79 1020.03 1020.19 1020.31 1020.43 1020.75 1021.07 1021.39 1021.31 1021.31 1021.35 1021.67 1021.99 1022.19 1022.35 1022.55 1022.51 1022.55 1022.91 1022.95 1023.03 1023.15 1023.19 1023.23 1023.19 1023.15 1023.07 1022.95 1022.83 1022.75 1022.63 1022.51 1022.39 1022.35 1022.31 1022.15 1021.95 1021.95 1021.67 1020.95 1020.95 1020.51 1020.35 1020.03 1019.91 1019.59 1019.15 1018.87 1018.75 1018.51 1018.35 1018.15 1017.91 1017.59 1017.39 1017.39 1017.27 1017.11 1016.91 1016.79 1016.63 1016.55 1016.51 1016.43 1016.39 1016.39 1016.35 1016.31 1016.27 1016.19 1016.15 1016.11 1016.03 1015.99
1020.43 1020.67 1020.51 1020.59 1020.91 1021.35 1021.79 1021.87 1021.79 1021.83 1021.87 1022.15 1022.39 1022.47 1022.51 1022.47 1022.51 1022.59 1022.99 1023.03 1022.99 1023.03 1023.03 1022.99 1022.99 1022.95 1022.83 1022.75 1022.63 1022.51 1022.35 1022.19 1022.11 1022.27 1022.31 1021.99 1021.99 1021.95 1021.83 1021.35 1020.91 1020.51 1020.39 1020.03 1019.59 1019.59 1019.23 1018.83 1018.59 1018.31 1017.99 1017.91 1017.63 1017.43 1017.39 1017.47 1017.23 1017.15 1017.03 1016.91 1016.87 1016.79 1016.71 1016.67 1016.59 1016.55 1016.47 1016.39 1016.31 1016.23 1016.19 1016.11 1015.99 1015.87
1020.95 1021.23 1021.27 1021.11 1021.35 1021.71 1021.99 1021.91 1021.95 1021.95 1022.03 1022.27 1022.47 1022.59 1022.51 1022.55 1022.63 1022.83 1023.07 1023.11 1023.03 1023.03 1022.99 1022.99 1022.99 1022.91 1022.83 1022.75 1022.67 1022.51 1022.35 1022.19 1022.03 1021.99 1021.95 1021.83 1021.91 1021.79 1021.59 1021.35 1020.95 1020.55 1019.99 1019.59 1019.39 1019.39 1018.83 1018.71 1018.51 1018.43 1018.11 1017.91 1017.51 1017.35 1017.35 1017.19 1017.23 1017.15 1017.03 1016.83 1016.79 1016.79 1016.71 1016.59 1016.51 1016.35 1016.23 1016.15 1016.07 1015.99 1015.87 1015.83 1015.79 1015.79
1021.43 1021.71 1021.79 1021.79 1021.71 1021.75 1021.83 1021.99 1022.11 1022.27 1022.27 1022.27 1022.51 1022.59 1022.55 1022.67 1022.75 1022.95 1023.11 1023.07 1023.19 1023.23 1023.27 1023.27 1023.19 1023.07 1022.91 1022.83 1022.67 1022.51 1022.35 1022.15 1021.91 1021.71 1021.63 1021.55 1021.55 1021.47 1021.27 1021.11 1020.99 1020.75 1019.99 1019.51 1019.35 1019.23 1018.63 1018.55 1018.43 1018.35 1018.31 1018.31 1017.91 1017.23 1017.19 1017.15 1017.11 1017.11 1017.03 1016.83 1016.67 1016.63 1016.55 1016.43 1016.35 1016.31 1016.27 1016.19 1016.07 1015.99 1015.91 1015.83 1015.79 1015.75
1021.51 1021.91 1022.07 1022.11 1022.07 1022.07 1022.15 1022.19 1022.31 1022.39 1022.43 1022.51 1022.55 1022.63 1022.63 1022.75 1022.79 1022.99 1023.07 1023.03 1023.11 1023.19 1023.19 1023.15 1023.07 1022.95 1022.83 1022.71 1022.59 1022.43 1022.23 1021.99 1021.71 1021.51 1021.35 1021.23 1021.15 1021.15 1021.03 1020.87 1020.59 1020.19 1019.67 1019.35 1019.15 1019.15 1018.87 1018.67 1018.59 1018.31 1018.19 1018.11 1017.63 1017.51 1017.15 1017.07 1016.99 1016.91 1016.83 1016.79 1016.71 1016.63 1016.59 1016.55 1016.51 1016.47 1016.43 1016.35 1016.27 1016.15 1016.07 1015.99 1015.91 1015.87
1021.87 1022.07 1022.15 1022.19 1022.27 1022.23 1022.27 1022.31 1022.39 1022.47 1022.55 1022.59 1022.59 1022.63 1022.71 1022.79 1022.87 1022.95 1023.03 1023.11 1023.15 1023.15 1023.11 1023.03 1022.99 1022.83 1022.71 1022.55 1022.35 1022.15 1021.95 1021.71 1021.47 1021.27 1021.07 1020.87 1020.71 1020.59 1020.51 1020.39 1020.19 1019.91 1019.47 1019.15 1019.07 1018.99 1018.83 1018.47 1018.47 1018.35 1018.07 1017.95 1017.43 1017.43 1017.31 1017.15 1016.91 1016.71 1016.63 1016.67 1016.67 1016.59 1016.55 1016.55 1016.59 1016.55 1016.47 1016.35 1016.27 1016.23 1016.23 1016.15 1016.07 1015.91
1021.95 1022.03 1022.03 1022.11 1022.23 1022.27 1022.27 1022.31 1022.39 1022.47 1022.55 1022.63 1022.59 1022.67 1022.71 1022.75 1022.87 1023.03 1023.07 1023.07 1023.03 1022.99 1022.95 1022.95 1022.83 1022.71 1022.55 1022.35 1022.07 1021.87 1021.63 1021.39 1021.23 1021.03 1020.79 1020.55 1020.35 1020.15 1019.91 1019.75 1019.55 1019.31 1018.95 1018.91 1018.83 1018.75 1018.71 1018.35 1018.19 1018.23 1017.95 1017.79 1017.63 1017.23 1017.27 1017.19 1016.83 1016.63 1016.71 1016.55 1016.51 1016.59 1016.59 1016.51 1016.39 1016.31 1016.31 1016.31 1016.31 1016.35 1016.31 1016.11 1016.03 1015.99
1021.95 1021.99 1022.07 1022.11 1022.27 1022.43 1022.51 1022.55 1022.55 1022.63 1022.71 1022.75 1022.79 1022.83 1022.79 1022.71 1022.71 1022.79 1022.87 1022.87 1022.91 1022.99 1022.95 1022.79 1022.67 1022.51 1022.27 1022.11 1021.87 1021.63 1021.39 1021.15 1020.91 1020.67 1020.43 1020.23 1020.03 1019.83 1019.55 1019.31 1019.07 1018.87 1018.67 1018.55 1018.47 1018.43 1018.31 1018.15 1017.99 1017.87 1017.75 1017.59 1017.47 1017.27 1017.07 1016.63 1016.55 1016.51 1016.43 1016.39 1016.43 1016.43 1016.43 1016.35 1016.15 1016.07 1016.03 1016.11 1016.11 1016.03 1015.91 1015.83 1015.91 1015.91
1021.99 1022.07 1022.19 1022.31 1022.39 1022.51 1022.59 1022.63 1022.67 1022.71 1022.71 1022.71 1022.63 1022.59 1022.63 1022.67 1022.75 1022.83 1022.87 1022.87 1022.87 1022.87 1022.67 1022.55 1022.43 1022.31 1022.07 1021.87 1021.59 1021.35 1021.15 1020.87 1020.67 1020.47 1020.19 1019.95 1019.71 1019.47 1019.19 1018.95 1018.75 1018.55 1018.43 1018.23 1018.15 1017.99 1017.87 1017.79 1017.67 1017.55 1017.43 1017.19 1017.07 1016.71 1016.71 1016.35 1016.31 1016.23 1016.19 1016.19 1016.39 1016.19 1016.15 1016.19 1016.15 1015.95 1015.83 1015.91 1015.87 1015.87 1015.87 1015.87 1015.91 1015.83
1022.39 1022.47 1022.51 1022.51 1022.47 1022.47 1022.43 1022.43 1022.47 1022.51 1022.63 1022.63 1022.67 1022.71 1022.75 1022.75 1022.79 1022.79 1022.79 1022.75 1022.71 1022.63 1022.51 1022.39 1022.27 1022.03 1021.87 1021.67 1021.43 1021.19 1020.99 1020.87 1020.63 1020.35 1020.03 1019.79 1019.51 1019.31 1019.03 1018.75 1018.43 1018.27 1018.11 1017.95 1017.79 1017.67 1017.51 1017.39 1017.27 1017.23 1017.07 1016.83 1016.67 1016.43 1016.23 1016.19 1015.95 1015.87 1015.91 1015.99 1015.87 1016.03 1016.03 1016.03 1016.03 1016.03 1015.91 1015.71 1015.75 1015.75 1015.79 1015.83 1015.83 1015.79
1022.19 1022.31 1022.39 1022.47 1022.55 1022.59 1022.63 1022.67 1022.75 1022.75 1022.79 1022.75 1022.79 1022.83 1022.83 1022.79 1022.79 1022.75 1022.71 1022.67 1022.59 1022.51 1022.39 1022.27 1022.07 1021.83 1021.63 1021.43 1021.31 1021.11 1020.91 1020.67 1020.39 1020.15 1019.87 1019.67 1019.43 1019.23 1018.95 1018.71 1018.31 1018.11 1017.83 1017.67 1017.47 1017.31 1017.19 1017.03 1016.91 1016.83 1016.83 1016.55 1016.35 1016.11 1015.91 1015.83 1015.75 1015.71 1015.63 1015.59 1015.71 1015.79 1015.55 1015.91 1015.99 1015.87 1015.79 1015.75 1015.75 1015.75 1015.75 1015.75 1015.75 1015.67
1022.39 1022.43 1022.51 1022.51 1022.67 1022.67 1022.75 1022.87 1022.87 1022.91 1022.99 1022.99 1022.95 1022.87 1022.87 1022.83 1022.79 1022.71 1022.63 1022.55 1022.51 1022.43 1022.31 1022.15 1021.95 1021.75 1021.51 1021.31 1021.03 1020.79 1020.63 1020.39 1020.07 1019.79 1019.63 1019.43 1019.15 1018.95 1018.75 1018.59 1018.23 1017.99 1017.67 1017.47 1017.23 1016.99 1016.83 1016.71 1016.59 1016.47 1016.39 1016.31 1016.23 1015.87 1015.75 1015.63 1015.59 1015.59 1015.55 1015.47 1015.39 1015.35 1015.43 1015.43 1015.47 1015.55 1015.63 1015.67 1015.63 1015.51 1015.55 1015.59 1015.55 1015.55
1022.43 1022.47 1022.55 1022.67 1022.79 1022.91 1022.91 1022.95 1022.99 1023.07 1023.03 1022.99 1023.07 1022.99 1022.95 1022.91 1022.83 1022.71 1022.59 1022.55 1022.47 1022.31 1022.19 1021.99 1021.79 1021.51 1021.27 1020.99 1020.71 1020.47 1020.23 1019.91 1019.59 1019.35 1019.23 1018.99 1018.87 1018.51 1018.43 1018.23 1017.91 1017.79 1017.55 1017.19 1016.99 1016.71 1016.55 1016.35 1016.23 1016.11 1015.95 1015.79 1015.75 1015.71 1015.67 1015.63 1015.43 1015.39 1015.39 1015.23 1015.23 1015.15 1015.07 1015.07 1015.07 1015.11 1015.47 1015.51 1015.31 1015.23 1015.35 1015.39 1015.35 1015.39
1022.47 1022.75 1022.83 1023.07 1023.07 1023.11 1023.07 1023.11 1023.15 1023.27 1023.23 1023.19 1023.11 1023.03 1022.95 1022.87 1022.75 1022.63 1022.51 1022.47 1022.35 1022.19 1022.07 1021.83 1021.59 1021.27 1020.95 1020.67 1020.35 1020.07 1019.75 1019.39 1019.19 1018.95 1018.83 1018.55 1018.39 1018.31 1018.11 1017.91 1017.59 1017.35 1017.19 1016.91 1016.75 1016.51 1016.27 1016.07 1015.95 1015.79 1015.67 1015.51 1015.35 1015.31 1015.31 1015.35 1015.19 1015.07 1014.95 1015.03 1015.03 1014.95 1014.71 1014.79 1014.87 1014.91 1015.07 1014.91 1014.91 1015.11 1015.31 1015.35 1015.35 1015.39
1022.71 1022.75 1022.91 1023.15 1023.19 1023.23 1023.19 1023.23 1023.27 1023.27 1023.19 1023.19 1023.15 1023.03 1022.91 1022.83 1022.75 1022.63 1022.55 1022.35 1022.23 1022.07 1021.87 1021.59 1021.31 1020.99 1020.75 1020.39 1020.07 1019.83 1019.47 1019.19 1018.83 1018.59 1018.35 1018.23 1018.03 1017.91 1017.67 1017.51 1017.19 1016.99 1016.79 1016.59 1016.39 1016.15 1016.07 1015.91 1015.87 1015.75 1015.59 1015.43 1015.27 1014.83 1014.71 1014.71 1014.83 1014.67 1014.71 1014.67 1014.63 1014.63 1014.47 1014.47 1014.55 1014.75 1014.87 1014.99 1014.99 1014.95 1015.23 1015.35 1015.39 1015.47
1023.03 1023.11 1023.07 1023.19 1023.27 1023.27 1023.19 1023.23 1023.23 1023.27 1023.31 1023.31 1023.27 1023.15 1023.03 1022.83 1022.71 1022.63 1022.47 1022.23 1022.11 1021.87 1021.59 1021.31 1020.99 1020.67 1020.35 1020.03 1019.71 1019.43 1019.15 1018.87 1018.55 1018.31 1018.03 1017.87 1017.71 1017.47 1017.27 1017.03 1016.79 1016.55 1016.35 1016.19 1015.95 1015.79 1015.75 1015.67 1015.67 1015.79 1015.67 1015.39 1015.31 1014.95 1014.43 1014.03 1014.15 1014.23 1014.43 1014.31 1014.27 1014.27 1014.11 1014.15 1014.31 1014.47 1014.71 1014.87 1014.95 1014.95 1015.07 1015.19 1015.39 1015.51
1023.07 1023.19 1023.23 1023.23 1023.27 1023.23 1023.23 1023.31 1023.39 1023.43 1023.39 1023.39 1023.31 1023.23 1023.15 1022.95 1022.63 1022.39 1022.11 1021.91 1021.71 1021.51 1021.27 1021.03 1020.67 1020.35 1019.99 1019.67 1019.35 1019.07 1018.79 1018.55 1018.23 1017.91 1017.71 1017.43 1017.23 1017.07 1016.87 1016.55 1016.35 1016.15 1015.95 1015.67 1015.55 1015.43 1015.43 1015.43 1015.39 1015.47 1015.39 1015.19 1014.99 1014.67 1014.11 1013.83 1013.67 1013.63 1013.79 1013.99 1013.95 1013.87 1013.91 1013.99 1014.19 1014.39 1014.43 1014.55 1014.79 1014.83 1014.79 1015.07 1015.43 1015.55
1023.07 1023.19 1023.23 1023.23 1023.19 1023.23 1023.31 1023.39 1023.43 1023.43 1023.43 1023.35 1023.27 1023.07 1022.87 1022.63 1022.31 1022.03 1021.75 1021.63 1021.43 1021.19 1020.91 1020.63 1020.31 1019.99 1019.63 1019.35 1019.07 1018.71 1018.39 1018.11 1017.87 1017.59 1017.31 1017.07 1016.91 1016.67 1016.43 1016.19 1015.87 1015.71 1015.47 1015.23 1015.15 1015.07 1015.03 1015.07 1015.07 1015.03 1015.07 1014.91 1014.71 1014.35 1014.15 1013.55 1013.59 1013.47 1013.47 1013.59 1013.67 1013.51 1013.71 1013.87 1014.03 1014.07 1014.27 1014.51 1014.67 1014.87 1014.99 1015.15 1015.43 1015.63
1023.11 1023.19 1023.19 1023.19 1023.27 1023.31 1023.39 1023.47 1023.47 1023.35 1023.31 1023.19 1023.07 1022.83 1022.63 1022.39 1022.19 1021.95 1021.75 1021.51 1021.23 1020.95 1020.63 1020.31 1019.95 1019.59 1019.27 1018.95 1018.67 1018.39 1018.07 1017.75 1017.47 1017.15 1016.87 1016.63 1016.47 1016.23 1015.99 1015.75 1015.51 1015.19 1015.15 1014.91 1014.75 1014.67 1014.67 1014.71 1014.63 1014.63 1014.55 1014.47 1014.31 1013.99 1013.71 1013.71 1013.63 1013.27 1013.15 1013.23 1013.27 1013.51 1013.67 1013.67 1013.75 1013.91 1014.27 1014.63 1014.99 1015.19 1015.43 1015.59 1015.71 1015.83
1023.11 1023.23 1023.27 1023.23 1023.23 1023.35 1023.39 1023.35 1023.31 1023.31 1023.23 1023.07 1022.91 1022.75 1022.63 1022.47 1022.19 1021.95 1021.67 1021.35 1021.03 1020.63 1020.31 1019.95 1019.55 1019.19 1018.87 1018.55 1018.23 1017.95 1017.67 1017.39 1017.07 1016.75 1016.47 1016.23 1015.95 1015.79 1015.59 1015.35 1015.15 1014.91 1014.75 1014.55 1014.39 1014.23 1014.23 1014.15 1014.11 1014.07 1014.03 1013.87 1013.79 1013.63 1013.59 1013.63 1013.55 1013.31 1013.19 1013.15 1013.19 1013.19 1013.15 1013.43 1013.55 1013.87 1014.35 1014.63 1014.83 1015.07 1015.51 1015.71 1015.95 1016.19
1023.19 1023.19 1023.19 1023.27 1023.31 1023.35 1023.31 1023.31 1023.27 1023.15 1023.03 1022.95 1022.87 1022.71 1022.55 1022.31 1022.11 1021.79 1021.51 1021.11 1020.75 1020.39 1019.99 1019.55 1019.19 1018.87 1018.51 1018.19 1017.91 1017.67 1017.35 1016.91 1016.63 1016.31 1016.07 1015.79 1015.51 1015.31 1015.11 1014.95 1014.71 1014.51 1014.39 1014.11 1013.95 1013.83 1013.67 1013.55 1013.51 1013.47 1013.51 1013.51 1013.55 1013.67 1013.83 1013.79 1013.63 1013.19 1012.99 1013.03 1013.11 1012.99 1012.91 1012.91 1013.11 1013.51 1013.95 1014.47 1014.67 1014.99 1015.35 1015.67 1015.95 1016.19
1022.99 1023.07 1023.23 1023.27 1023.19 1023.23 1023.19 1023.11 1023.03 1022.99 1022.99 1022.95 1022.83 1022.67 1022.39 1022.15 1021.87 1021.47 1021.11 1020.71 1020.39 1020.03 1019.67 1019.27 1018.87 1018.51 1018.15 1017.83 1017.51 1017.23 1016.99 1016.59 1016.23 1015.95 1015.67 1015.43 1015.15 1014.87 1014.63 1014.51 1014.31 1013.99 1013.95 1013.71 1013.47 1013.23 1013.07 1013.19 1013.27 1013.35 1013.43 1013.51 1013.59 1013.71 1013.51 1013.27 1013.07 1012.87 1013.07 1013.19 1013.19 1012.95 1012.75 1012.75 1012.91 1013.03 1013.39 1013.99 1014.47 1015.07 1015.63 1016.03 1016.07 1016.27
1023.03 1023.11 1023.19 1023.27 1023.27 1023.11 1022.99 1022.95 1022.95 1023.03 1023.03 1022.91 1022.75 1022.55 1022.35 1022.03 1021.63 1021.23 1020.83 1020.47 1020.07 1019.75 1019.35 1018.95 1018.55 1018.23 1017.83 1017.47 1017.15 1016.87 1016.63 1016.27 1015.91 1015.63 1015.35 1015.07 1014.83 1014.59 1014.27 1013.99 1013.79 1013.59 1013.43 1013.19 1012.95 1012.91 1012.91 1012.99 1013.11 1013.15 1013.19 1013.23 1013.19 1013.19 1013.07 1012.83 1012.83 1012.87 1013.15 1013.27 1013.35 1013.27 1013.15 1013.07 1013.15 1013.51 1013.83 1013.99 1014.11 1014.23 1014.35 1014.63 1015.27 1015.99
1023.03 1023.07 1023.27 1023.27 1023.03 1022.83 1022.83 1022.91 1022.95 1022.95 1022.91 1022.83 1022.63 1022.43 1022.19 1021.87 1021.43 1020.95 1020.55 1020.23 1019.87 1019.51 1019.07 1018.71 1018.27 1017.91 1017.51 1017.15 1016.83 1016.51 1016.23 1015.91 1015.59 1015.31 1014.99 1014.71 1014.43 1014.15 1013.91 1013.59 1013.39 1013.23 1013.03 1012.91 1012.75 1012.63 1012.59 1012.71 1012.79 1012.87 1012.91 1012.83 1012.79 1012.83 1012.71 1012.71 1012.75 1012.83 1013.11 1013.39 1013.47 1013.51 1013.67 1013.75 1013.83 1013.99 1014.23 1014.43 1014.51 1014.59 1014.67 1014.83 1014.87 1014.75
1023.11 1023.23 1023.19 1022.99 1022.75 1022.75 1022.83 1022.87 1022.87 1022.83 1022.79 1022.63 1022.43 1022.19 1021.87 1021.59 1021.19 1020.71 1020.27 1019.91 1019.59 1019.23 1018.87 1018.47 1018.07 1017.63 1017.27 1016.91 1016.59 1016.23 1015.83 1015.51 1015.23 1014.95 1014.67 1014.35 1014.07 1013.79 1013.55 1013.31 1013.11 1012.91 1012.75 1012.59 1012.59 1012.39 1012.35 1012.39 1012.43 1012.55 1012.59 1012.51 1012.51 1012.47 1012.47 1012.55 1012.59 1012.91 1013.23 1013.39 1013.59 1013.75 1013.87 1013.87 1013.95 1014.27 1014.59 1014.91 1014.99 1014.91 1014.99 1015.03 1014.99 1015.03
Wind_Speed
4 4 4 4 4 2 2 2 2 1 2 2 2 2 4 4 3 2 4 3 1 3 3 4 3 5 6 6 6 6 6 7 9 6 6 6 5 6 9 8 8 8 8 8 9 10 11 11 11 11 11 11 11 12 11 11 11 10 12 15 16 19 18 20 23 23 22 25 23 19 19 19 19 19
4 4 3 3 3 0 2 1 1 1 1 1 2 2 2 3 2 1 1 4 2 2 3 1 2 4 6 6 6 5 6 9 10 7 6 6 6 11 11 9 7 7 7 6 7 9 11 12 12 11 11 11 12 12 12 12 11 12 12 11 13 15 17 19 21 23 25 25 23 20 17 17 17 19
4 5 4 3 3 2 3 2 2 1 2 2 0 2 2 3 2 1 1 1 3 1 3 2 2 3 5 6 4 6 6 8 9 6 6 6 10 12 8 10 10 9 8 6 6 8 9 10 11 12 13 13 14 13 13 12 12 12 12 12 11 12 15 17 19 22 23 23 22 20 21 21 18 16
3 4 4 4 3 2 3 3 3 3 3 1 1 2 2 2 2 2 1 1 5 2 2 3 4 5 4 5 6 7 7 8 9 5 6 7 9 7 7 9 11 11 11 12 11 10 9 9 10 11 12 13 14 14 14 14 13 13 12 12 12 12 13 15 16 19 19 19 17 18 17 15 14 13
3 2 2 2 1 1 4 2 2 3 4 4 3 3 3 4 3 3 1 2 6 3 1 2 3 5 4 5 4 7 7 9 9 8 6 6 6 6 7 7 11 13 13 13 12 12 12 12 11 11 11 11 12 13 13 14 13 12 12 12 12 12 12 13 13 14 17 17 15 16 14 16 18 15
2 3 2 0 1 1 3 2 3 3 4 3 4 5 5 6 6 3 3 1 1 5 3 4 4 4 5 5 4 6 8 8 8 9 8 7 6 7 7 8 6 12 13 12 11 11 12 13 14 14 14 13 12 12 13 13 13 13 13 13 13 12 12 13 13 13 13 14 14 14 15 16 18 17
3 3 3 1 2 1 2 2 3 4 4 3 5 4 3 4 4 4 3 3 2 4 4 3 5 5 5 4 8 8 7 6 7 7 8 8 7 7 8 8 6 12 15 14 13 14 15 14 14 15 15 16 15 13 12 12 12 13 13 12 12 12 12 12 12 12 12 12 13 13 13 14 15 18
4 4 3 2 3 2 2 1 2 3 3 4 3 4 3 3 4 3 4 4 2 1 3 3 3 5 6 4 6 7 7 8 7 6 7 7 8 8 8 8 7 11 15 14 14 14 14 15 15 16 16 16 17 16 14 12 11 11 11 11 12 12 11 11 11 11 12 11 12 12 12 12 16 18
5 4 4 4 4 3 3 1 1 2 3 3 4 4 3 4 3 3 4 3 3 3 5 4 2 4 4 3 4 7 9 9 6 6 8 7 7 8 7 6 8 11 13 12 13 12 13 14 14 16 16 15 16 16 15 13 12 11 10 10 10 11 12 11 11 11 11 11 11 10 11 11 14 17
5 5 5 4 5 5 4 4 2 3 3 3 4 4 3 3 3 3 3 3 3 3 2 3 5 3 6 7 4 6 7 8 8 9 8 6 7 9 11 9 8 7 7 7 8 10 11 13 14 16 15 14 15 16 15 14 13 12 11 11 11 11 11 11 11 10 10 10 10 10 10 10 12 15
6 6 5 5 5 5 5 5 4 4 3 4 4 3 3 3 3 4 3 3 4 4 4 2 2 4 3 4 7 7 5 4 3 6 10 11 7 6 7 9 8 6 8 8 10 10 10 12 11 14 14 14 15 15 14 14 13 12 12 12 12 12 11 12 12 11 11 11 11 10 9 9 10 12
6 6 6 6 6 6 5 5 5 5 5 4 4 2 3 3 3 3 3 4 4 5 4 3 4 3 3 6 2 4 6 8 7 6 4 8 10 10 7 4 8 5 7 8 9 10 12 13 14 15 14 13 14 14 13 14 13 14 14 13 12 13 13 12 12 11 11 10 9 9 8 8 9 10
6 6 6 6 6 6 7 9 8 7 7 5 4 2 3 3 2 2 2 3 3 3 4 5 3 5 6 5 7 8 6 6 8 7 4 6 6 7 8 7 3 2 5 6 8 8 8 10 10 9 9 10 13 12 13 11 13 13 15 16 15 12 12 11 11 9 9 8 8 9 10 9 9 10
5 7 6 5 10 10 10 10 10 10 8 6 5 5 4 3 2 1 0 1 1 2 5 4 4 7 6 6 6 5 5 4 4 5 6 9 9 8 8 6 2 2 4 7 8 8 7 8 9 9 10 9 8 8 9 9 10 12 14 15 16 13 9 8 8 8 8 8 8 9 9 9 8 9
7 6 5 5 7 9 8 8 11 10 9 8 8 9 8 7 5 3 1 2 1 1 2 2 3 3 5 6 4 4 7 5 5 5 4 5 6 7 9 12 5 1 6 6 9 10 5 4 8 8 8 9 10 8 8 13 14 13 14 15 15 12 8 7 7 7 8 8 8 7 7 7 8 8
8 6 5 4 5 5 6 5 5 6 7 8 8 9 9 9 8 6 5 3 2 2 3 3 4 3 5 5 4 5 4 6 5 5 6 5 6 7 6 6 9 5 6 8 9 11 4 2 5 7 6 8 8 10 15 17 15 13 13 14 15 12 7 6 7 8 8 7 6 6 6 7 7 8
6 6 6 5 3 3 7 6 5 5 4 5 6 5 6 6 7 7 5 4 4 3 3 4 4 4 3 4 4 2 4 4 7 7 6 6 5 6 8 7 8 7 5 7 9 11 5 2 3 6 6 6 7 10 12 16 16 15 13 14 15 12 8 5 6 6 6 6 5 5 5 6 7 8
4 5 5 5 3 3 3 4 5 4 4 4 3 1 1 2 3 4 5 6 5 3 4 4 5 3 0 4 3 4 3 4 5 6 7 6 7 8 9 9 9 8 3 5 5 10 7 3 3 5 8 7 7 7 10 15 16 14 13 12 12 11 7 4 2 4 4 4 2 3 3 4 5 6
4 4 4 3 4 3 3 3 4 4 4 2 1 1 1 1 2 2 3 3 2 1 1 2 3 4 3 3 4 4 3 3 4 4 6 6 7 9 8 8 6 7 3 4 2 9 6 3 5 6 7 7 7 6 9 13 11 11 10 8 6 4 4 5 5 4 3 3 3 5 5 6 6 7
5 5 6 4 3 3 2 0 2 0 1 1 1 1 2 3 3 3 3 6 6 5 3 1 0 2 3 5 4 5 5 5 5 5 5 3 5 7 9 11 9 8 3 4 5 7 8 1 7 6 5 6 7 8 7 7 10 9 5 3 3 3 3 3 2 2 4 5 5 6 6 6 7 8
4 3 2 3 4 4 4 5 7 6 7 5 5 4 4 4 4 4 3 4 4 3 2 2 3 5 6 8 8 8 9 6 5 4 5 6 5 7 10 10 7 8 4 3 4 8 10 4 5 5 4 3 4 6 6 5 7 8 6 2 1 2 2 2 1 1 2 2 4 4 5 6 6 7
6 5 6 5 7 8 6 8 11 10 8 6 4 4 3 3 3 3 2 3 3 5 5 7 7 8 10 11 12 11 12 13 9 4 7 6 5 7 6 10 7 8 5 6 7 5 6 4 3 5 3 3 2 4 3 4 5 6 4 4 2 1 2 1 2 2 2 2 4 4 5 5 5 3
5 5 7 10 9 8 8 11 10 10 8 5 3 3 3 2 3 4 2 3 4 5 5 5 5 6 7 6 6 7 12 13 11 6 6 6 6 7 7 8 8 9 2 3 1 4 4 3 2 2 7 6 4 3 2 5 4 3 4 4 2 3 2 3 3 5 7 8 9 9 10 10 7 4
5 6 5 7 11 11 11 10 9 7 7 5 3 3 2 0 2 2 1 2 2 3 3 5 4 5 5 6 5 6 6 7 6 7 6 6 6 7 8 7 6 8 6 3 4 7 6 4 6 2 5 6 4 1 3 4 2 2 3 4 3 4 4 5 5 7 7 7 8 9 10 9 8 4
6 5 5 4 6 8 7 7 6 6 5 5 3 2 1 1 1 2 2 3 4 3 4 4 4 6 6 6 6 6 6 7 7 7 7 7 6 6 7 8 8 8 7 5 5 5 7 5 8 4 5 3 4 4 3 2 3 3 4 5 3 3 1 3 2 3 4 5 4 6 6 7 7 4
5 5 4 3 3 5 6 5 5 4 4 2 1 1 4 4 4 3 2 3 3 5 5 5 5 6 6 6 6 6 7 7 8 7 8 7 8 7 7 8 9 9 8 5 8 8 9 8 6 7 6 6 6 3 5 3 3 6 3 3 4 4 3 3 2 3 2 2 2 2 3 3 3 4
6 4 4 3 4 4 4 3 3 3 2 1 1 3 3 4 5 3 2 2 4 4 5 5 6 6 6 6 7 7 7 7 7 8 8 8 8 8 8 9 9 10 9 7 7 8 8 9 6 7 9 7 9 7 6 5 4 1 2 5 4 3 4 4 4 4 3 3 3 4 4 1 3 3
5 4 3 2 4 2 1 1 3 3 2 1 2 3 3 2 2 1 2 3 4 4 5 5 6 6 6 6 6 6 7 7 7 8 7 8 8 9 9 10 11 10 10 9 8 8 8 9 8 7 9 9 9 9 8 4 4 3 5 3 2 4 4 4 4 3 3 2 1 1 1 2 1 1
3 3 2 1 1 3 3 4 4 3 4 3 3 5 5 3 1 1 2 4 3 5 5 6 6 6 6 7 7 7 7 6 6 6 6 6 7 8 9 10 9 9 8 7 8 9 9 9 9 8 9 8 9 8 7 8 5 5 4 3 2 5 6 5 4 4 4 2 2 1 1 2 2 1
7 6 6 5 6 7 6 5 5 5 5 6 6 6 5 3 2 2 2 3 4 6 6 6 6 7 6 7 7 7 6 6 7 7 7 7 6 6 7 8 8 7 8 8 8 9 9 9 9 8 9 9 9 9 8 7 7 5 5 6 6 2 4 5 5 4 3 4 3 1 2 2 3 2
5 7 7 6 7 7 9 8 6 6 5 5 5 4 4 3 4 3 4 5 6 6 6 6 7 6 7 6 6 7 7 7 7 6 7 7 7 6 7 8 9 8 7 8 8 8 9 9 9 8 9 8 8 9 8 7 8 6 6 5 3 4 3 4 4 5 5 4 1 1 0 1 1 1
4 5 6 7 5 5 5 5 5 5 5 4 5 5 5 5 4 5 6 5 4 5 6 7 6 6 6 7 7 7 7 7 8 6 7 7 8 7 7 7 8 7 8 7 8 9 9 9 9 8 8 8 9 8 7 7 6 5 4 5 6 5 4 5 5 6 5 4 2 3 2 1 2 2
5 5 6 5 6 5 5 5 5 6 6 6 5 4 5 6 6 6 5 6 6 6 7 8 8 8 8 8 7 8 8 8 8 6 7 7 8 8 7 9 9 9 9 9 8 8 7 8 8 9 9 8 8 8 7 7 6 5 6 6 5 6 5 5 5 5 3 2 3 2 3 1 1 2
6 5 5 5 5 5 6 6 5 4 4 5 6 5 5 5 6 6 6 6 6 6 7 7 8 8 8 8 8 8 9 9 8 8 8 9 8 8 8 9 9 8 9 9 8 8 8 8 7 7 7 6 6 7 7 8 8 8 7 5 6 7 7 5 5 5 6 5 4 4 2 1 0 1
5 5 6 4 4 3 4 3 3 3 5 6 5 6 6 6 6 6 6 6 6 7 7 8 8 8 8 9 8 9 9 9 9 8 8 8 8 9 9 9 9 9 9 9 8 7 7 7 6 7 7 6 7 7 9 10 8 8 6 7 7 7 7 5 5 5 5 4 2 3 2 1 1 0
5 4 5 5 3 2 4 3 4 5 6 5 5 6 7 7 6 6 7 7 7 7 8 8 8 9 8 9 9 9 9 9 9 9 8 8 8 8 8 9 9 9 9 9 9 7 6 7 6 7 8 7 6 8 7 11 14 8 8 7 6 7 7 5 5 5 5 5 4 4 4 4 3 2
4 3 3 3 1 3 4 4 4 5 5 5 6 6 6 7 7 7 7 7 7 8 8 8 9 9 9 9 9 9 9 9 9 9 9 8 8 8 9 9 9 9 9 9 8 8 6 7 6 6 8 9 9 10 7 1 12 14 7 7 7 6 7 3 4 4 5 6 5 5 4 4 3 2
3 2 1 1 2 3 3 3 3 4 5 5 5 6 6 6 7 8 8 8 9 8 9 8 9 9 9 9 9 9 9 9 9 9 9 8 8 8 8 9 9 8 9 8 7 7 6 7 7 6 8 10 9 7 7 2 0 4 10 9 7 7 3 4 4 6 4 3 3 2 3 4 3 2
3 3 2 1 2 3 2 2 2 4 5 5 6 6 7 8 8 8 9 9 9 9 9 9 9 9 9 9 9 9 9 9 9 9 9 8 8 9 9 8 9 8 8 8 7 7 7 7 7 7 8 8 9 7 6 4 4 4 5 8 8 3 4 5 6 4 4 4 5 5 5 5 7 9
2 2 2 2 2 1 1 2 3 4 5 5 6 7 7 8 8 8 9 9 9 9 9 9 10 10 9 9 9 9 9 10 10 9 9 9 8 9 9 8 9 8 8 9 8 7 7 8 7 7 7 8 7 7 5 5 5 4 5 2 4 8 7 6 5 5 4 5 6 7 7 5 4 1
3 2 1 1 2 1 2 2 3 4 5 6 7 7 8 8 9 9 8 10 9 10 9 9 9 9 9 9 9 8 9 9 8 8 8 9 9 9 10 10 9 8 8 9 8 8 8 7 8 9 8 5 5 3 3 5 6 6 5 3 5 6 8 9 7 7 6 7 7 8 7 6 6 4
3 3 1 1 2 1 1 3 4 5 6 6 7 7 8 8 8 13 12 12 10 10 9 9 9 9 9 8 8 8 8 9 9 9 8 8 9 9 9 8 8 8 8 9 8 8 5 3 5 6 6 6 5 6 7 6 6 4 1 1 2 6 3 9 9 9 12 11 10 7 5 4 4 5
3 3 2 1 0 1 3 3 4 5 6 6 7 8 8 9 9 10 8 9 9 9 9 9 9 8 8 8 8 8 8 9 9 9 9 8 8 8 8 8 8 8 8 8 7 6 5 4 4 5 5 5 6 6 6 5 5 3 2 2 2 3 6 9 12 12 9 9 7 4 2 5 8 6
4 3 2 1 1 3 3 3 4 5 6 6 7 7 7 8 9 10 9 8 9 9 9 9 9 9 9 9 8 8 8 8 8 8 8 8 8 8 8 8 8 8 7 7 7 6 5 4 5 5 5 5 5 5 6 5 4 3 4 4 3 5 7 6 8 10 10 10 9 9 9 6 4 3
3 3 2 1 3 2 3 3 4 5 6 7 7 7 8 8 8 9 9 9 9 9 10 10 9 9 9 9 8 9 8 8 8 8 8 8 8 8 8 8 7 7 7 6 5 6 4 4 4 4 5 5 4 5 4 4 3 5 5 5 6 5 5 5 7 7 7 6 6 9 8 9 12 16
Wind_Direction
93 82 96 120 122 109 82 59 77 114 92 105 127 131 127 144 100 0 351 288 296 314 353 17 311 9 353 351 348 355 1 359 4 359 359 353 337 336 326 323 339 342 326 305 289 278 270 266 262 258 259 263 265 267 267 261 256 241 235 239 235 236 228 221 221 228 230 234 234 227 222 215 211 209
106 105 84 96 83 5 72 43 318 8 46 50 89 112 131 124 128 165 352 293 231 269 307 3 308 338 346 349 346 356 347 348 359 354 352 343 339 333 325 331 334 338 334 314 292 279 274 272 272 270 267 265 267 267 267 267 260 256 251 240 228 227 227 228 222 220 224 227 226 227 230 227 219 209
118 115 114 131 117 140 97 52 29 10 13 348 25 99 109 84 121 141 138 4 290 193 328 289 301 317 330 342 343 347 345 345 352 348 341 337 334 336 330 327 329 334 334 324 299 284 276 272 275 280 281 278 274 270 267 264 261 256 251 249 243 232 227 227 231 228 225 227 230 224 222 226 223 214
123 130 133 152 147 160 90 59 45 34 9 40 344 5 37 74 101 122 131 205 268 277 256 299 305 334 332 334 358 346 342 342 347 342 336 330 335 337 332 328 330 333 336 341 349 347 334 319 307 297 288 283 278 275 271 264 259 254 248 243 242 241 240 238 239 240 245 246 245 244 238 236 236 222
140 122 136 183 173 91 83 80 50 37 20 19 31 45 49 29 32 49 52 325 302 303 288 283 331 319 357 349 350 348 343 339 340 340 333 336 339 339 344 341 337 343 352 357 358 353 350 345 338 326 312 299 288 280 274 270 265 259 255 248 242 240 239 242 245 242 242 243 237 241 242 236 238 229
167 134 114 180 168 119 109 80 51 28 37 31 40 34 52 59 38 20 59 312 264 307 323 353 336 342 359 342 344 356 350 344 342 343 344 350 352 357 357 354 347 356 357 355 354 353 351 348 347 346 341 330 314 296 283 275 267 259 248 245 244 241 241 242 244 244 244 243 243 237 232 235 238 235
173 146 141 155 147 137 71 34 52 46 54 60 70 53 48 62 42 32 50 61 0 334 318 330 349 357 345 353 347 352 355 350 347 353 359 356 357 6 2 355 350 352 347 349 352 356 357 1 2 4 3 356 343 323 302 288 278 272 270 259 245 242 242 242 246 250 249 248 246 243 239 235 236 241
179 184 157 178 162 134 131 62 54 68 84 80 88 75 62 78 56 44 49 55 63 323 346 313 335 347 351 346 351 351 352 355 351 358 352 359 6 3 0 355 354 348 349 360 6 5 9 9 6 7 7 5 1 351 335 315 296 286 283 284 280 266 249 243 245 246 249 250 252 250 247 245 246 250
190 182 184 187 172 152 148 196 86 93 78 83 78 68 46 58 57 60 58 53 57 40 3 317 304 352 344 346 342 2 356 345 350 357 360 353 354 352 351 352 349 345 1 7 7 6 8 7 3 2 1 2 1 358 350 337 321 305 295 288 286 286 287 280 264 254 252 255 257 259 259 257 254 253
193 184 197 183 168 165 170 190 145 118 115 91 78 73 58 55 50 48 41 56 61 55 14 335 329 3 5 348 355 0 356 346 345 347 345 350 2 359 350 349 347 347 358 353 355 357 359 360 358 356 352 354 356 354 353 349 338 324 307 294 285 279 271 266 266 266 264 262 260 262 262 260 258 257
188 188 190 186 177 181 182 163 159 137 116 115 110 112 105 73 61 40 28 25 29 34 16 344 27 329 346 16 337 344 347 335 355 351 343 342 349 355 353 335 338 343 343 345 351 353 350 349 351 347 346 347 348 346 346 346 343 334 321 306 295 284 274 267 261 256 249 246 245 248 254 257 261 263
189 189 188 184 184 183 177 162 163 147 144 137 112 133 100 76 64 49 31 29 29 23 16 8 331 344 319 340 304 318 345 349 350 11 353 331 333 333 336 328 321 333 350 346 344 346 348 347 345 344 339 341 340 337 338 338 339 338 337 324 304 290 279 270 263 259 256 256 258 257 250 247 246 249
189 188 185 181 177 173 166 162 158 164 156 143 131 152 113 100 89 61 42 44 27 15 12 341 339 340 342 334 338 342 359 352 318 319 345 313 314 312 317 321 297 344 349 337 339 343 350 337 336 333 330 331 334 328 329 327 330 333 330 328 329 309 284 273 270 266 259 254 252 254 254 249 247 247
196 189 184 178 165 158 152 154 152 154 152 141 139 159 143 130 118 127 104 25 44 25 358 332 339 336 324 322 328 321 308 298 294 319 331 325 321 323 309 295 249 0 6 343 335 329 335 332 321 331 325 323 326 317 321 317 317 321 323 325 330 331 308 287 274 266 258 251 246 249 256 260 260 260
196 197 178 160 153 148 151 153 155 156 154 146 143 151 157 157 150 154 181 229 182 228 242 264 321 288 292 296 298 296 300 310 312 309 315 302 316 326 331 321 323 84 12 341 326 315 320 314 315 317 314 316 320 316 310 307 311 315 319 320 322 326 311 287 271 260 254 249 250 250 250 249 253 256
190 171 153 155 154 154 154 150 159 165 166 166 167 170 160 158 162 165 170 202 207 201 230 263 254 245 266 278 298 294 302 306 317 312 315 312 313 310 302 292 297 308 14 329 316 300 312 271 279 299 305 309 308 306 305 306 303 311 311 310 311 311 291 257 242 238 242 253 253 251 252 258 260 259
169 154 148 149 151 141 153 154 167 175 183 191 188 163 147 161 173 193 212 215 210 185 209 232 257 234 250 272 264 258 314 333 317 318 316 313 305 295 294 284 287 302 336 321 304 301 314 308 282 296 300 291 294 297 300 303 307 306 306 305 304 304 295 261 232 222 220 221 237 251 265 275 282 285
125 135 137 146 158 166 159 161 169 187 194 179 155 132 130 187 213 218 231 237 246 228 216 225 244 263 228 287 305 315 325 326 307 314 303 312 307 299 286 290 289 290 288 266 284 292 307 292 304 297 299 293 289 287 294 300 304 322 317 301 296 301 316 331 353 23 23 11 337 307 289 283 277 275
126 136 139 147 146 145 150 160 169 190 204 175 165 178 225 349 16 6 359 346 331 346 335 291 290 303 306 280 286 291 302 277 271 267 272 277 279 283 289 283 258 280 250 249 257 283 298 304 310 295 296 301 294 282 289 296 337 342 330 311 312 357 33 34 31 23 358 339 329 320 315 303 296 288
95 101 100 101 121 134 135 61 169 145 146 143 132 71 43 38 36 61 50 69 83 82 90 116 244 265 271 279 281 285 287 284 274 279 282 287 283 293 300 294 308 292 278 255 260 278 285 277 292 293 287 299 301 296 295 328 349 354 359 36 81 101 100 81 36 344 332 321 313 301 289 287 286 287
81 62 98 131 112 76 49 42 70 72 94 77 73 65 53 40 30 352 345 18 35 45 17 323 305 298 302 309 311 310 300 292 288 289 305 297 304 304 301 296 302 295 310 273 247 273 287 288 271 292 278 280 287 301 312 331 342 1 6 357 93 98 115 160 199 318 320 314 317 314 308 299 287 277
80 49 58 93 91 90 75 76 75 73 81 86 89 89 72 42 7 315 329 336 334 349 347 338 334 333 327 322 320 316 314 313 316 323 298 290 301 288 281 292 298 298 301 272 254 274 260 282 267 287 268 300 267 286 315 335 341 343 335 344 3 76 114 102 63 50 36 15 7 2 350 334 325 285
58 54 49 77 99 107 107 93 87 86 90 98 106 112 83 38 340 283 295 314 326 333 338 331 334 323 314 309 303 298 298 297 297 283 269 281 277 280 284 285 301 306 256 258 232 267 282 303 257 302 311 298 270 255 271 347 338 313 313 312 319 318 339 7 17 14 12 5 357 350 348 344 342 319
54 59 68 69 87 91 91 91 91 97 104 113 124 107 92 90 302 242 227 265 272 287 287 282 283 283 286 292 289 290 289 288 278 278 272 260 252 263 275 278 275 273 287 282 272 279 285 273 285 219 242 282 296 307 330 295 279 265 274 286 300 320 340 347 355 357 347 349 347 339 332 329 328 316
98 85 79 80 93 101 105 108 106 102 106 122 130 133 150 188 227 5 351 301 313 297 288 293 300 295 297 290 287 280 279 274 272 268 265 258 248 247 262 273 273 272 276 282 297 308 301 317 304 299 276 227 269 304 269 279 286 259 242 238 247 262 266 301 318 319 318 312 319 329 332 326 320 306
103 115 122 134 149 135 127 132 135 134 136 153 123 191 214 268 315 321 289 290 298 299 302 302 303 300 296 292 287 281 272 268 268 263 261 261 258 246 237 247 264 274 277 276 290 285 290 285 286 296 289 289 279 240 294 283 265 267 269 227 207 224 197 218 222 243 252 277 305 316 297 330 28 35
126 134 140 154 166 170 139 138 153 168 202 174 242 271 307 298 294 283 287 293 309 307 307 308 301 294 290 289 282 276 273 267 265 263 261 260 258 258 256 252 247 257 269 272 267 271 271 278 277 275 282 280 286 284 269 279 289 307 305 257 230 206 215 197 202 210 209 211 218 232 224 156 62 62
129 132 152 181 198 184 159 188 215 227 220 256 266 249 262 319 1 7 324 313 301 302 303 302 293 288 279 278 281 276 270 272 267 267 266 264 262 262 262 261 264 264 269 269 268 263 262 269 272 266 271 275 274 274 281 245 243 247 254 273 254 241 222 205 223 228 225 210 225 279 20 346 303 320
104 127 123 95 276 249 220 181 167 139 111 83 47 21 6 9 15 343 300 291 293 294 286 282 277 275 272 267 270 273 274 275 280 279 274 266 264 265 267 268 267 269 268 267 266 265 264 262 267 267 264 263 264 265 261 271 259 249 234 242 261 248 233 230 221 232 244 223 213 206 204 227 265 258
125 139 144 118 97 82 80 74 59 52 36 37 44 26 22 11 345 308 293 288 294 292 290 285 284 279 278 278 273 275 282 284 280 277 277 278 275 272 277 280 272 266 262 261 259 260 263 264 262 261 261 259 258 263 259 269 265 253 236 237 241 286 246 221 233 242 227 238 239 223 260 211 222 199
67 62 62 78 83 83 69 65 61 55 33 32 12 2 353 343 324 305 301 299 297 297 294 290 285 284 279 281 289 286 282 280 275 263 270 273 274 275 276 278 282 281 271 264 261 258 259 261 260 258 260 260 256 255 261 254 264 263 258 257 219 233 239 201 231 235 227 226 227 245 290 276 261 222
66 74 70 62 49 51 50 44 34 25 23 24 5 348 342 335 324 317 311 314 303 289 278 279 282 284 290 291 288 288 283 278 276 269 268 268 274 270 277 277 276 280 280 272 268 262 259 258 260 258 254 257 262 263 255 245 245 242 252 256 256 252 203 203 215 223 208 175 195 237 239 211 226 251
67 65 59 50 45 41 45 34 22 10 6 355 349 343 333 330 324 320 322 312 304 298 303 301 299 296 293 290 285 282 280 276 276 270 269 266 269 271 264 267 274 275 277 274 268 268 264 264 258 259 259 256 249 252 256 263 254 238 246 252 248 255 239 224 223 217 156 171 230 226 242 236 212 217
80 66 70 53 56 43 39 29 14 356 350 349 343 336 325 322 319 310 304 297 296 297 295 295 296 294 292 290 289 285 283 283 278 273 270 275 270 271 267 268 266 265 266 270 269 267 266 263 262 261 257 256 251 242 248 257 263 258 245 243 241 257 251 220 219 206 187 195 196 214 215 240 327 255
70 74 71 52 49 41 36 23 352 353 1 345 339 327 322 311 307 304 302 297 297 300 301 297 291 287 285 285 285 285 284 284 282 279 272 269 268 265 267 267 268 266 266 267 265 262 264 265 266 268 270 273 275 266 226 229 249 248 255 244 242 247 255 221 203 203 202 220 158 188 187 180 235 310
70 81 88 68 43 33 27 352 355 360 353 340 329 321 323 318 310 304 302 298 297 296 294 292 290 288 287 285 285 284 283 282 280 279 278 271 268 266 263 262 265 265 263 262 263 260 255 257 249 254 257 258 255 268 272 214 215 232 236 251 237 238 246 230 206 195 193 203 193 176 183 196 199 208
87 72 89 92 41 41 24 3 357 342 339 332 320 312 303 302 303 299 296 299 299 296 292 291 289 287 287 285 284 281 280 278 278 277 274 272 267 266 266 264 261 261 262 259 257 258 248 250 242 242 251 257 258 260 261 214 222 220 208 231 244 231 231 215 192 205 208 194 191 192 182 150 172 191
104 100 89 65 57 29 23 8 353 344 326 311 301 300 301 305 309 310 310 311 303 299 295 291 287 285 283 283 283 283 279 275 273 273 271 269 268 265 261 265 267 261 260 261 254 250 240 241 239 235 240 252 260 258 273 237 230 256 224 215 231 233 200 192 199 209 202 170 165 133 99 131 144 128
129 145 155 110 65 59 17 320 332 325 315 317 322 323 319 316 313 308 307 301 297 293 292 289 286 285 285 283 279 279 280 281 278 274 273 270 264 267 267 266 267 263 262 262 254 248 240 237 233 231 229 237 242 250 255 270 245 262 270 232 227 217 193 192 206 195 149 130 104 81 60 77 84 86
172 171 187 112 72 77 339 351 342 320 324 324 323 319 314 306 302 302 300 298 296 294 292 288 288 289 285 284 283 282 277 274 274 275 274 273 270 265 265 265 264 267 265 263 260 250 238 235 227 228 228 231 240 244 256 261 275 270 268 313 255 216 209 184 193 157 146 140 135 124 126 120 111 4
160 151 128 152 116 65 30 342 313 328 330 325 317 308 302 297 297 295 295 294 295 295 295 293 292 290 289 289 286 284 283 282 278 276 275 273 271 268 265 265 266 258 258 259 256 253 244 234 230 230 230 239 248 289 290 251 243 240 240 268 332 299 233 198 175 164 150 152 144 136 136 139 132 130
153 135 162 164 103 66 28 339 332 337 324 315 307 302 299 297 291 295 294 295 295 293 292 293 293 293 292 290 290 287 284 284 285 282 278 278 278 274 266 261 260 260 252 254 254 254 249 228 232 230 234 235 237 225 236 234 238 245 205 331 317 339 290 207 187 159 149 153 146 134 100 79 101 127
132 133 127 191 188 74 14 354 337 321 306 304 300 298 298 297 295 298 297 298 300 299 297 298 297 297 295 295 293 289 287 285 283 281 280 277 274 274 275 267 262 261 257 259 256 255 249 227 219 217 219 216 222 213 231 223 227 193 138 107 65 49 51 81 98 104 105 93 64 77 128 148 150 166
149 142 186 200 95 30 2 331 309 304 298 297 294 296 295 296 298 298 298 298 301 302 302 300 300 302 301 300 296 293 286 283 284 284 281 279 274 272 271 273 269 265 262 258 263 255 245 229 215 211 216 218 208 206 222 214 214 175 147 126 115 102 99 90 84 77 71 63 77 85 80 79 65 79
147 172 191 150 63 7 310 295 299 297 300 296 297 298 297 297 295 297 298 300 301 302 303 302 303 303 303 302 302 299 297 293 290 284 280 278 277 275 273 270 270 265 261 255 255 262 245 237 221 203 215 222 204 212 213 203 175 137 137 134 120 114 118 122 113 103 91 81 68 95 98 106 110 110